Regional Weather Roundup
Issued by NWS Boston, MA

Home | Current Version | Previous Version | Text Only | Print | Product List | Glossary On
Versions: 1 2 3 4 5 6 7 8 9 10 11 12 13 14 15 16 17 18 19 20 21 22 23 24 25 26 27 28 29 30 31 32 33 34 35 36 37 38 39 40 41 42 43 44 45 46 47 48 49
000
ASUS41 KBOX 020610
RWRBOX

REGIONAL WEATHER ROUNDUP
NATIONAL WEATHER SERVICE TAUNTON MA
200 AM EDT TUE SEP 02 2014

NOTE:  "FAIR" INDICATES FEW OR NO CLOUDS BELOW 12,000 FEET WITH NO
SIGNIFICANT WEATHER AND/OR OBSTRUCTIONS TO VISIBILITY.  THE FOLLOWING
OBSERVATION LOCATIONS DO NOT REPORT PRESENT WEATHER...PROVINCETOWN...
SMITHFIELD...BLOCK ISLAND...KEENE...AND OXFORD.

MAZALL-020700-
EASTERN MASSACHUSETTS

CITY           SKY/WX    TMP DP  RH WIND       PRES   REMARKS
BOSTON         FAIR      75  71  87 SW10      29.92F
6HR MIN TEMP:  73; 6HR MAX TEMP:  79;

BEVERLY        FAIR      71  68  90 CALM      29.91F
LAWRENCE       FAIR      73  70  90 S6        29.93F
BEDFORD        FAIR      72  70  93 CALM      29.91F
BLUE HILL        N/A     72  70  93 SW9       29.94F
NORWOOD        FAIR      67  66  97 E3        29.92F FOG
MARSHFIELD     FAIR      73  72  94 SW6       29.94F
PLYMOUTH       FAIR      70  67  90 CALM      29.95F
TAUNTON        FAIR      71  69  93 CALM      29.93F
NEW BEDFORD    FAIR      70  69  97 CALM      29.93F
$$

MAZALL-020700-
CAPE COD AND THE ISLANDS

CITY           SKY/WX    TMP DP  RH WIND       PRES   REMARKS
FALMOUTH       FOG       72  70  94 W8        29.95F VSB 3/4
HYANNIS        FAIR      72  70  93 SW8       29.93F
CHATHAM        CLOUDY    71  70  96 VRB5      29.95F
PROVINCETOWN   FAIR      70  66  88 SW8       29.93F
NANTUCKET      FOG       70  70 100 W10       29.95F VSB 3/4
MARTHAS VNYRD  CLOUDY    70  70 100 SW3       29.94F FOG
$$

MAZALL-020700-
CENTRAL AND WESTERN MASSACHUSETTS

CITY           SKY/WX    TMP DP  RH WIND       PRES   REMARKS
WORCESTER      FAIR      70  69  97 W5        29.95F
6HR MIN TEMP:  70; 6HR MAX TEMP:  76;

FITCHBURG      FAIR      71  67  87 CALM      29.93F
ORANGE         CLOUDY    67  66  97 CALM      29.93F
SPRINGFIELD    FAIR      72  70  94 S2        29.91F
WESTFIELD      FAIR      73  70  90 CALM      29.92S
NORTH ADAMS    FAIR      67  66  97 CALM      29.92F
PITTSFIELD     FAIR      66  66 100 CALM      29.94S FOG
$$

RIZALL-020700-
RHODE ISLAND

CITY           SKY/WX    TMP DP  RH WIND       PRES   REMARKS
PROVIDENCE     CLOUDY    73  70  90 SE3       29.93F
6HR MIN TEMP:  72; 6HR MAX TEMP:  80;

NEWPORT        CLOUDY    72  70  93 S3        29.93F FOG
BLOCK ISLAND   CLOUDY    72  70  94 SW8       29.95S VSB 3/4
SMITHFIELD     MOCLDY    72  64  78 SW3       29.93F
WESTERLY       MOCLDY    71  70  96 S3        29.94F FOG
$$

CTZALL-020700-
CONNECTICUT

CITY           SKY/WX    TMP DP  RH WIND       PRES   REMARKS
BRADLEY INTL   MOCLDY    76  71  85 S5        29.91F
6HR MIN TEMP:  75; 6HR MAX TEMP:  82;

HARTFORD       MOCLDY    75  71  87 S5        29.91F
BRIDGEPORT     FAIR      76  74  93 CALM      29.92F
DANBURY        FAIR      71  70  96 CALM      29.94F FOG
GROTON         FAIR      72  71  97 CALM      29.92F
NEW HAVEN      CLOUDY    76  72  87 CALM      29.92F
CHESTER        MOCLDY    73  72  94 CALM      29.95S
MERIDEN        FAIR      72  70  93 CALM      29.93F FOG
WILLIMANTIC    CLOUDY    73  70  90 CALM      29.93F
OXFORD         MOCLDY    72  68  88 CALM      29.96F
$$

MEZ002-015-021-024-NHZ003-005-008-011-012-014-VTZ005-008-020700-
NORTHERN NEW ENGLAND

CITY           SKY/WX    TMP DP  RH WIND       PRES   REMARKS
PORTLAND ME    FAIR      66  64  93 CALM      29.91F
6HR MIN TEMP:  65; 6HR MAX TEMP:  72;

BANGOR ME      CLOUDY    68  67  96 S3        29.93S
CONCORD NH     FAIR      64  63  96 CALM      29.92F
MANCHESTER NH  FAIR      71  67  87 CALM      29.90F
NASHUA NH      FAIR      70  69  96 CALM      29.92F
PORTSMOUTH NH  FAIR      69  68  97 CALM      29.90F FOG
JAFFREY NH     FAIR      65  64  97 CALM      29.95F
KEENE NH       FAIR      64  55  72 CALM      29.93F
BURLINGTON VT  FAIR      74  63  68 S8        29.85F
MT. WASHINGTON PTCLDY    52  50  93 W24         N/A
$$

NYZ052-076-020700-
EASTERN NEW YORK

CITY           SKY/WX    TMP DP  RH WIND       PRES   REMARKS
ALBANY         FAIR      76  70  82 S9        29.89F
6HR MIN TEMP:  76; 6HR MAX TEMP:  80;

NEW YORK CITY  FAIR      80  73  79 SW7       29.92F
6HR MIN TEMP:  80; 6HR MAX TEMP:  84;

$$

ANZALL-020700-
MARINE OBSERVATIONS

STATION/POSITION TIME  TEMP    WIND        PRES    VSBY  WAVE
                       AIR SEA DIR/SP/G                  HT/PER
                 (UTC) (F)     (DEG/KT/KT) (MB)    (MI)  (FT/S)
BOSTON BUOY      0550   70 67  220/  4/  6 1013.5F         1/ 8
BUZZARDS BAY     0500          220/ 12/ 13 1015.0F
NANTUCKET SOUND  0550   69 71  240/ 12/ 14 1013.8F         1/ 2
MASS BAY-STELLWA 0504   70 67  250/  4/  6   N/A    1 7/8  1
ISLE OF SHOALS   0600   72     240/  5/  5 1012.2F
S OF BLOCK IS    0508      69                N/A           3/ 6
$$

......................KEY.........................
  SKY/WX - SKY CONDITION/PRESENT WEATHER
  TMP    - TEMPERATURE IN FAHRENHEIT
  DWPT   - DEWPOINT IN FAHRENHEIT
  RH     - RELATIVE HUMIDITY IN PERCENT
  WIND   - DIRECTION AND SPEED IN MPH
  PRES   - MEAN SEA LEVEL PRESSURE IN INCHES OF HG
  WCI    - WIND CHILL INDEX
  VSB    - VISIBILITY IN MILES
  HX     - HEAT INDEX
  TC     - TEMPERATURE IN CELSIUS
  VRB    - VARIABLE WIND DIRECTION
  N/A    - NOT AVAILABLE


USA.gov is the U.S. government's official web portal to all federal, state and local government web resources and services.